Regional Weather Roundup
Issued by NWS Wilmington, NC

Home | Current Version | Previous Version | Text Only | Print | Product List | Glossary On
Versions: 1 2 3 4 5 6 7 8 9 10 11 12 13 14 15 16 17 18 19 20 21 22 23 24 25 26 27 28 29 30 31 32 33 34 35 36 37 38 39 40 41 42 43 44 45 46 47 48 49 50
161
ASUS42 KILM 090813
RWRILM
RWRILM
REGIONAL HOURLY WEATHER ROUNDUP
NATIONAL WEATHER SERVICE WILMINGTON NC
300 AM EST TUE FEB 09 2016

NOTE: "FAIR" INDICATES FEW OR NO CLOUDS BELOW 12,000 FEET WITH NO
SIGNIFICANT WEATHER AND/OR OBSTRUCTIONS TO VISIBILITY.

...............WFO WILMINGTON COUNTY WARNING AREA...............

......COASTAL NC AND SC COUNTIES......

CITY           SKY/WX    TMP DP  RH WIND       PRES   REMARKS
WILMINGTON     CLOUDY    45  39  79 W8        29.63S
N MYRTLE BEACH CLEAR     43  36  76 W9        29.65S
MYRTLE BEACH   CLEAR     43  30  61 W10G18    29.69S

......INLAND NC AND SC COUNTIES.......

CITY           SKY/WX    TMP DP  RH WIND       PRES   REMARKS
LUMBERTON      CLEAR     38  35  89 W6        29.63S WCI  33
ELIZABETHTOWN  CLEAR     40  39  97 W3        29.63S
WHITEVILLE     CLEAR     41  37  87 CALM      29.63S
FLORENCE       PTCLDY    39  30  70 W8        29.67R WCI  33
DARLINGTON     CLOUDY    37  30  75 W13       29.67S WCI  29
KINGSTREE      MOCLDY    41  28  60 SW9       29.70S
HARTSVILLE     CLOUDY    36  32  87 W3        29.66S
BENNETTSVILLE  MOCLDY    37  36  93 W5        29.66R WCI  34
CONWAY         FAIR      39  32  75 SW6       29.68R WCI  35
GEORGETOWN     FAIR      39  32  75 W8        29.71F WCI  34
MARION         FAIR      37  32  81 W7        29.66S WCI  32

....................REST OF NORTH CAROLINA......................

.........EASTERN NC.........

CITY           SKY/WX    TMP DP  RH WIND       PRES   REMARKS
CAPE HATTERAS  LGT RAIN  44  40  85 CALM      29.59F
JACKSONVILLE   CLOUDY    43  36  75 SW6       29.62R
MOREHEAD CITY  CLOUDY    45  39  79 W8        29.59F
KENANSVILLE    PTCLDY    38  38 100 CALM      29.63R FOG
NEW BERN       MOCLDY    42  38  85 W8        29.62R
ELIZABETH CITY MOCLDY    39  37  92 SW6       29.56S WCI  35

.........CENTRAL NC.........

CITY           SKY/WX    TMP DP  RH WIND       PRES   REMARKS
RALEIGH DURHAM MOCLDY    35  33  92 CALM      29.61S
ROCKY MOUNT    MOCLDY    38  37  97 W5        29.60R WCI  34
ROANOKE RAPIDS NOT AVBL
FAYETTEVILLE   MOCLDY    38  36  92 W7        29.62S WCI  33
HOFFMAN        MOCLDY    36  36  99 NW2       29.63S

.........WESTERN NC.........

CITY           SKY/WX    TMP DP  RH WIND       PRES   REMARKS
CHARLOTTE      MOCLDY    36  27  69 W5        29.65S WCI  32
GREENSBORO     CLOUDY    34  28  79 NW6       29.60F WCI  29
HICKORY        NOT AVBL
BOONE          NOT AVBL
ASHEVILLE      NOT AVBL

.....................REST OF SOUTH CAROLINA.....................

.........EASTERN SC.........

CITY           SKY/WX    TMP DP  RH WIND       PRES   REMARKS
CHARLESTON     CLEAR     40  32  73 W10       29.75S WCI  33
BEAUFORT MCAS  CLEAR     41  31  67 W10       29.80R
HILTON HEAD    CLEAR     43  34  70 W8        29.82R

.........CENTRAL SC.........

CITY           SKY/WX    TMP DP  RH WIND       PRES   REMARKS
COLUMBIA       CLEAR     38  25  59 SW8       29.72S WCI  32
ORANGEBURG     CLEAR     40  25  55 W12       29.74S WCI  33
SUMTER SHAW    CLEAR     38  26  62 W10       29.69R WCI  30

.........WESTERN SC.........

CITY           SKY/WX    TMP DP  RH WIND       PRES   REMARKS
GREENVILLE     NOT AVBL
ROCK HILL      CLEAR     32  25  75 SW7       29.66S WCI  26
ANDERSON       PTCLDY    35  18  49 W14G25    29.73F WCI  26
CLEMSON        NOT AVBL
GREENWOOD      CLEAR     35  19  52 W9G22     29.74F WCI  28


...................COASTAL AND OFFSHORE REPORTS..................

................LOCAL PIERS AND NC RESERVE................


STATION/POSITION TIME  SKY/WX   TEMP    WIND        PRES    VSBY
                                AIR SEA DIR/SP/G
                 (UTC)          (F)     (DEG/KT/KT) (MB)    (MI)
JOHNY MRCER PIER 0700            46 53  260/  8/ 12 1002.3R
NC RESRV MASNBRO NOT AVBL
OCEAN CREST PIER NOT AVBL
SPRINGMAID  PIER 0700            44 51  240/  9/ 12 1004.3S


................COASTAL AND OFFSHORE BUOYS................


STATION/POSITION TIME  SKY/WX   TEMP    WIND        PRES    VSBY
                                AIR SEA DIR/SP/G
                 (UTC)          (F)     (DEG/KT/KT) (MB)    (MI)
DIMNDSHOAL 41025 0750            48 73  290/ 16/ 21 1002.1R
WVE H/P(F/S)= 11/15 SWL H/P/D(F/S/D)= 10/ 80/15

CAPE LOOKOUT     NOT AVBL
ONSLOW BAY 41036 NOT AVBL
ONSLOW BAY 41064 0708            52 61              1002.4S
ONSLOW BAY 41159 0725               61                N/A
WVE H/P(F/S)=  7/ 8 SWL H/P/D(F/S/D)=  3/ 90/15

5SE WRITBC 41038 0708            49 51  270/ 16/ 21 1003.3R
MASNBO INL 41110 0706               51                N/A
WVE H/P(F/S)=  3/14 SWL H/P/D(F/S/D)=  2/110/14

WILM HARBR 41108 0726               53                N/A
WVE H/P(F/S)=  5/ 7 SWL H/P/D(F/S/D)=  2/130/13

27SE WRITB 41037 0708            51 60  290/ 17/ 25 1002.3R
FRYING PAN 41013 0800            53 61  270/ 21/ 29 1003.4F
SUNST NRSH 41024 NOT AVBL
CAPRS NRSH 41029 0708            46     280/ 19/ 25 1006.4R
EDISTO     41004 0750            52 65  290/ 27/ 33 1005.5R
WVE H/P(F/S)=  8/ 8 SWL H/P/D(F/S/D)=  3/16



..........OFFSHORE BUOYS BEYOND 100 NM OFFSHORE...........
.....IN A TRIANGLE---HAT TO BERMUDA TO BAHAMAS TO HAT.....


STATION/POSITION TIME  SKY/WX   TEMP    WIND        PRES    VSBY
                                AIR SEA DIR/SP/G
                 (UTC)          (F)     (DEG/KT/KT) (MB)    (MI)
150E HAT   41001 0800            57 71  270/ 16/ 21 1000.3F
W BERMUDA  41048 0750            68 70  200/ 23/ 31 1007.4F
WVE H/P(F/S)= 12/12 SWL H/P/D(F/S/D)= 10/330/12

ATLANTIC S 41049 0750            74 75  190/ 14/ 16 1016.4R
WVE H/P(F/S)= 16/16 SWL H/P/D(F/S/D)= 16/290/16

E BAHAMAS  41046 0750            77 79  160/  8/ 12 1016.5F
WVE H/P(F/S)= 13/12 SWL H/P/D(F/S/D)= 13/310/12

NE BAHAMAS 41047 0750            71 75  240/ 21/ 27 1012.8F
WVE H/P(F/S)= 11/14 SWL H/P/D(F/S/D)= 10/310/14

120E CANVRL41010 0720            68 72              1007.4F

END




USA.gov is the U.S. government's official web portal to all federal, state and local government web resources and services.